#timestamp,LO_Frequency,Hit 
1505473215.9,286047002.5,N
1505473235.7,286047000.4,N
1505473255.6,286046999.8,N
1505473275.4,286047002.3,N
1505473295.2,286046999.1,N
1505473315.1,286046996.7,N
1505473316.0,286046996.7,N
1505473335.8,286046997.0,N
1505473355.6,286047000.7,N
1505473375.5,286046998.6,N
1505473395.3,286046996.6,N
1505473415.1,286046998.6,N
1505473435.8,286046998.5,N
1505473455.7,286046998.9,N
1505473475.5,286047003.6,N
1505473495.3,286047001.5,N
1505473515.2,286046998.1,N
1505473535.9,286046998.7,N
1505473555.7,286046998.7,N
1505473575.6,286047003.3,N
1505473595.4,286047003.7,N
1505473615.2,286047003.2,N
1505473635.1,286047004.9,N
1505473636.0,286047004.9,N
1505473655.8,286047008.7,P
1505473675.6,286047003.3,N
1505473695.5,286047005.0,N
1505473715.3,286047003.1,N
1505473735.1,286047001.5,N
1505473755.9,286047005.3,N
1505473775.7,286047003.9,N
1505473795.5,286047002.0,N
1505473815.4,286047002.5,N
1505473835.2,286047005.5,N
1505473855.0,286047005.9,N
1505473855.9,286047005.9,N
1505473875.8,286047006.7,P
1505473895.6,286046999.8,N
1505473915.4,286047001.1,N
1505473935.3,286047001.0,N
1505473955.1,286046996.9,N
1505473956.0,286046996.9,N
1505473975.8,286046998.4,N
1505473995.7,286046998.1,N
1505474015.5,286046996.5,N
1505474035.3,286046999.4,N
1505474055.2,286047002.8,N
1505474075.9,286046996.7,N
1505474095.7,286046996.8,N
1505474115.5,286046996.5,N
1505474135.4,286046995.9,N
1505474155.2,286046994.4,N
1505474175.0,286046994.0,N
1505474175.9,286046994.0,N
1505474195.8,286046997.3,N
1505474215.6,286046998.5,N
1505474235.4,286046994.1,N
1505474255.3,286046992.3,N
1505474275.1,286046993.9,N
1505474276.0,286046993.9,N
1505474295.8,286046994.3,N
1505474315.7,286046992.9,N
1505474335.5,286046992.9,N
1505474355.3,286046993.0,N
1505474375.2,286046996.3,N
1505474395.9,286046993.4,N
1505474415.7,286046992.1,N
1505474435.6,286046993.9,N
1505474455.4,286046997.1,N
1505474475.2,286046997.5,N
1505474495.0,286046996.9,N
1505474496.0,286046996.9,N
1505474515.8,286046994.3,N
1505474535.6,286046994.6,N
1505474555.4,286046994.8,N
1505474575.3,286046995.1,N
1505474595.1,286046995.1,N
1505474615.8,286046997.6,N
1505474635.7,286046994.9,N
1505474655.5,286046997.4,N
1505474675.3,286046994.2,P
1505474695.2,286046997.1,P
1505474715.0,286046998.8,N
1505474715.9,286046998.8,N
1505474735.7,286046999.3,N
1505474755.6,286046995.3,N
1505474775.4,286046996.7,N
1505474795.2,286046996.7,N
1505474815.1,286046995.9,N
1505474816.0,286046995.9,N
1505474835.8,286046994.1,P
1505474855.6,286046999.0,N
1505474875.5,286046998.5,N
1505474895.3,286047001.6,N
1505474915.1,286047001.4,N
1505474935.9,286047003.6,N
1505474955.7,286047001.3,N
1505474975.5,286046999.4,N
1505474995.4,286046997.6,N
1505475015.2,286046998.8,N
1505475035.0,286047000.4,N
1505475035.9,286047000.4,N
1505475055.8,286047002.3,N
1505475075.6,286047001.0,N
1505475095.4,286047000.4,N
1505475115.3,286047004.0,N
1505475135.1,286047004.3,N
1505475136.0,286047004.3,N
1505475155.8,286047000.1,N
1505475175.7,286047004.2,N
1505475195.5,286047006.0,N
1505475215.3,286047005.4,N
1505475235.1,286047006.0,N
1505475255.9,286047006.0,N
1505475275.7,286047005.5,N
1505475295.5,286047007.1,N
1505475315.4,286047006.7,N
1505475335.2,286047008.6,N
1505475355.0,286047007.2,N
1505475355.9,286047007.2,N
1505475375.8,286047008.7,N
1505475395.6,286047008.9,N
1505475415.4,286047007.6,N
1505475435.3,286047006.4,N
1505475455.1,286047006.3,N
1505475456.0,286047006.3,N
1505475475.8,286047005.2,N
1505475495.7,286047007.2,N
1505475515.5,286047007.5,N
1505475535.3,286047002.5,N
1505475555.1,286047001.2,N
1505475575.9,286046998.6,N
1505475595.7,286047001.0,N
1505475615.5,286047000.4,N
1505475635.4,286047001.7,N
1505475655.2,286047000.9,N
1505475675.0,286047003.9,N
1505475675.9,286047003.9,N
1505475695.8,286047003.8,N
1505475715.6,286047001.4,N
1505475735.4,286047005.4,N
1505475755.3,286047003.9,N
1505475775.1,286047002.8,N
1505475776.0,286047002.8,N
1505475795.8,286047005.8,N
1505475815.7,286047005.4,N
1505475835.5,286047003.4,N
1505475855.3,286047004.0,N
1505475875.2,286047000.3,N
1505475895.9,286047000.4,N
1505475915.7,286047001.4,N
1505475935.6,286047002.0,N
1505475955.4,286047001.6,N
1505475975.2,286047000.2,N
1505475995.0,286047002.4,N
1505475996.0,286047002.4,N
1505476015.8,286047006.0,N
1505476035.6,286047001.8,N
1505476055.4,286047001.6,N
1505476075.3,286047002.0,N
1505476095.1,286047000.0,N
1505476115.8,286047002.7,N
1505476135.7,286047001.3,N
1505476155.5,286047004.1,N
1505476175.3,286046998.5,N
1505476195.2,286047002.6,N
1505476215.9,286046998.7,N
1505476235.7,286047002.1,N
1505476255.6,286047001.7,N
1505476275.4,286047003.2,N
1505476295.2,286047005.1,N
1505476315.1,286047002.8,N
1505476316.0,286047002.8,N
1505476335.8,286047002.8,N
1505476355.6,286046998.3,N
1505476375.5,286046998.7,N
1505476395.3,286047004.3,N
1505476415.1,286047004.0,N
1505476435.8,286046999.7,N
1505476455.7,286046998.5,N
1505476475.5,286047000.0,N
1505476495.3,286047003.8,N
1505476515.2,286047004.0,N
1505476535.9,286046999.8,N
1505476555.7,286047002.2,N
1505476575.6,286047002.5,N
1505476595.4,286047002.2,N
1505476615.2,286047001.0,N
1505476635.1,286047003.2,N
1505476636.0,286047003.2,N
1505476655.8,286047005.0,N
1505476675.6,286047004.0,N
1505476695.5,286047002.8,N
1505476715.3,286046998.9,N
1505476735.1,286047001.2,N
1505476755.9,286046998.3,N
1505476775.7,286047000.0,N
1505476795.5,286047001.8,N
